[[{"header":{"parameterUnit":"m.s-1","parameterCategory":1,"la1":30.2991,"la2":30.254,"lo1":-89.0895,"lo2":-89.0444,"dy":0.0017,"dx":0.0017,"nx":28,"ny":28,"refTime":"2024-10-09T09:00:00:Z","depth":0,"parameterNumber":2,"parameterNumberName":"U-component_of_WINDS"},"data":[0,0,0,0,0,0,0,0,0,0,0,0,0,0,0,0,0,0,0,0,0,0,0,0,0,0,0,0,0,0,0,0,0,0,0,0,0,0,0,0,0,0,0,0,0,0,0,0,0,0,0,0,0,0,0,0,0,0,-1.6781,-1.6781,0,-1.6837,-1.6838,-1.6838,-1.6784,-1.6782,-1.6779,-1.6777,-1.6837,-1.6841,-1.6844,0,0,0,0,0,0,0,0,0,0,0,0,0,-1.6628,-1.6631,-1.6781,-1.6782,-1.6782,-1.6837,-1.6838,-1.6839,-1.6784,-1.6782,-1.6779,-1.6776,-1.6836,-1.684,-1.6845,0,0,0,0,0,0,0,0,0,0,0,0,0,-1.669,-1.6632,-1.6781,-1.6762,-1.676,-1.6837,-1.6838,-1.6839,-1.6785,-1.6781,-1.6778,-1.6775,-1.6835,-1.684,-1.6845,-1.6944,0,0,-1.6862,-1.6864,0,0,0,0,0,0,0,0,-1.6687,-1.6696,-1.6764,-1.6763,-1.6762,-1.68,-1.6806,-1.6874,-1.6786,-1.6776,-1.6777,-1.6774,-1.6828,-1.6834,-1.6851,-1.6947,-1.6949,-1.6862,-1.6866,-1.6868,-1.687,0,0,0,0,0,0,0,-1.6683,-1.6693,-1.6803,-1.6765,-1.6764,-1.6751,-1.6756,-1.6818,-1.6819,-1.6776,-1.6772,-1.678,-1.6827,-1.6846,-1.6852,-1.695,-1.6862,-1.6867,-1.6871,-1.6873,-1.713,-1.7133,0,0,0,0,0,0,-1.668,-1.669,-1.6801,-1.6805,-1.6716,-1.6756,-1.6762,-1.6791,-1.6818,-1.6819,-1.6782,-1.6777,-1.6839,-1.6846,-1.6854,-1.6972,-1.6868,-1.6873,-1.6876,-1.7126,-1.7131,-1.7135,0,0,0,0,0,0,-1.6677,-1.6691,-1.6799,-1.6746,-1.6759,-1.6762,-1.6795,-1.6794,-1.6814,-1.6823,-1.6823,-1.6802,-1.6836,-1.6847,-1.6922,-1.6974,-1.6876,-1.6881,-1.7122,-1.7128,-1.7133,-1.7209,0,0,0,0,0,0,-1.6673,-1.669,-1.6727,-1.6748,-1.6762,-1.6866,-1.6798,-1.6797,-1.6823,-1.6816,-1.6842,-1.6843,-1.6835,-1.6914,-1.6927,-1.6979,-1.6885,-1.7118,-1.7125,-1.7131,-1.7202,-1.7216,-1.7229,0,0,0,0,0,-1.6668,-1.6747,-1.6729,-1.6743,-1.6809,-1.6869,-1.6877,-1.6866,-1.6827,-1.6865,-1.6871,-1.6842,-1.6965,-1.6922,-1.6937,-1.6991,-1.7114,-1.7123,-1.713,-1.7196,-1.7214,-1.7228,0,0,0,0,0,0,-1.6734,-1.6749,-1.673,-1.6818,-1.6843,-1.686,-1.6907,-1.6884,-1.6921,-1.6913,-1.6897,-1.6904,-1.6984,-1.6994,-1.6947,-1.7088,-1.7034,-1.7045,-1.7079,-1.7095,-1.7108,-1.7105,-1.6889,0,0,0,0,0,-1.6758,-1.6805,-1.6816,-1.6893,-1.6906,-1.6905,-1.693,-1.6919,-1.6944,-1.6954,-1.6966,-1.6992,-1.7036,-1.7066,-1.7107,-1.7202,-1.7208,-1.7247,-1.726,-1.7271,-1.7282,-1.7334,-1.7351,-1.7161,-1.7161,-1.7161,0,0,-1.681,-1.6824,-1.6855,-1.6907,-1.6924,-1.6974,-1.6914,-1.6969,-1.7006,-1.6963,-1.7035,-1.7044,-1.7072,-1.7158,-1.7196,-1.7169,-1.7335,-1.7281,-1.729,-1.7295,-1.7344,-1.7362,-1.7378,-1.7166,-1.7165,-1.7165,0,0,-1.693,-1.6945,-1.7011,-1.7029,-1.7056,-1.7054,-1.707,-1.709,-1.7095,-1.7166,-1.7135,-1.7179,-1.7256,-1.7277,-1.7298,-1.7424,-1.74,-1.7438,-1.7509,-1.756,-1.7575,-1.7588,-1.7635,-1.7651,-1.7448,-1.7448,-1.7449,0,-1.6992,-1.7065,-1.7048,-1.7105,-1.7129,-1.7091,-1.7158,-1.7177,-1.7216,-1.7234,-1.7202,-1.7298,-1.7314,-1.7405,-1.7435,-1.7453,-1.7471,-1.7437,-1.7574,-1.7587,-1.7599,-1.7643,-1.7661,-1.7453,-1.7453,-1.7452,-1.7452,0,-1.7139,-1.719,-1.724,-1.7279,-1.7308,-1.737,-1.7363,-1.7394,-1.738,-1.7382,-1.7455,-1.7472,-1.7517,-1.7537,-1.7524,-1.7626,-1.7609,-1.7576,-1.7521,-1.7622,-1.7664,-1.768,-1.746,-1.7458,-1.7457,-1.7456,0,0,-1.7305,-1.7332,-1.7351,-1.7368,-1.7394,-1.7434,-1.7493,-1.7536,-1.7564,-1.7592,-1.7643,-1.7707,-1.7677,-1.7701,-1.7689,-1.7733,-1.7834,-1.7695,-1.7695,-1.7722,-1.7949,-1.7975,-1.7995,-1.7816,-1.7819,-1.7822,-1.7947,0,-1.7428,-1.7532,-1.7518,-1.7618,-1.7665,-1.7628,-1.7681,-1.7703,-1.7705,-1.7746,-1.7749,-1.7796,-1.7751,-1.7765,-1.7807,-1.7813,-1.788,-1.7803,-1.7865,-1.7867,-1.7862,-1.8017,-1.8045,-1.8162,-1.7963,-1.7966,-1.7968,0,-1.7585,-1.7618,-1.7723,-1.7741,-1.776,-1.7808,-1.7845,-1.7884,-1.7908,-1.7907,-1.7933,-1.7913,-1.7973,-1.7915,-1.7999,-1.7948,-1.7971,-1.7978,-1.7982,-1.7989,-1.7926,-1.803,-1.82,-1.8218,-1.7993,-1.7991,-1.7989,0,-1.7698,-1.7768,-1.784,-1.7855,-1.7878,-1.7912,-1.7923,-1.7944,-1.797,-1.8003,-1.802,-1.806,-1.8082,-1.8113,-1.8105,-1.8063,-1.8191,-1.8132,-1.8193,-1.8193,-1.8224,-1.8222,-1.8402,-1.8235,-1.8235,-1.8235,-1.8234,0,-1.7838,-1.7904,-1.7891,-1.7936,-1.8008,-1.7991,-1.8064,-1.807,-1.8089,-1.8134,-1.8104,-1.8147,-1.8132,-1.8175,-1.8168,-1.8239,-1.8249,-1.8251,-1.8249,-1.8255,-1.8255,-1.8272,-1.8265,-1.8239,-1.8238,-1.8237,-1.8237,0,-1.7977,-1.7971,-1.8047,-1.8062,-1.8067,-1.812,-1.8133,-1.8175,-1.8174,-1.8232,-1.8245,-1.8244,-1.8293,-1.8286,-1.8341,-1.8336,-1.8425,-1.8412,-1.8417,-1.8415,-1.8477,-1.8472,-1.8676,-1.8702,-1.8517,-1.8518,-1.852,0,-1.8068,-1.8118,-1.8137,-1.8165,-1.8179,-1.8224,-1.8251,-1.8235,-1.8264,-1.8294,-1.8333,-1.8378,-1.8414,-1.8493,-1.8498,-1.854,-1.8529,-1.8597,-1.8535,-1.854,-1.8532,-1.853,-1.8536,-1.861,-1.8612,-1.8614,-1.8615,0,-1.8231,-1.8225,-1.8264,-1.8302,-1.8334,-1.8363,-1.8389,-1.8414,-1.8401,-1.8435,-1.8484,-1.8511,-1.8566,-1.8612,-1.8651,-1.8662,-1.8638,-1.8634,-1.8651,-1.8659,-1.8661,-1.8663,-1.8453,-1.8631,-1.8629,-1.8628,-1.8627,-1.8626,-1.835,-1.8393,-1.8413,-1.8457,-1.8475,-1.85,-1.8541,-1.8544,-1.8584,-1.8628,-1.8615,-1.8671,-1.8693,-1.8742,-1.8758,-1.8801,-1.8776,-1.88,-1.8807,-1.8813,-1.8822,-1.8652,-1.8808,-1.8807,-1.8807,-1.8807,-1.8806,0,-1.8513,-1.8523,-1.8564,-1.8601,-1.8636,-1.8607,-1.8635,-1.8667,-1.8716,-1.8738,-1.8773,-1.8829,-1.8873,-1.8881,-1.8923,-1.8956,-1.8946,-1.8968,-1.8967,-1.897,-1.884,-1.8823,-1.8976,-1.8976,-1.8976,-1.8976,-1.8976,-1.8976,-1.8602,-1.8673,-1.8669,-1.8748,-1.8759,-1.8813,-1.8831,-1.8854,-1.8871,-1.8935,-1.8972,-1.8975,-1.8992,-1.9034,-1.9074,-1.9075,-1.9093,-1.912,-1.9117,-1.8996,-1.8979,-1.8963,-1.8947,-1.9123,-1.9123,-1.9243,-1.9244,-1.9245]},{"header":{"parameterUnit":"m.s-1","parameterCategory":1,"la1":30.2991,"la2":30.254,"lo1":-89.0895,"lo2":-89.0444,"dy":0.0017,"dx":0.0017,"nx":28,"ny":28,"refTime":"2024-10-09T09:00:00:Z","depth":0,"parameterNumber":3,"parameterNumberName":"V-component_of_WINDS"},"data":[0,0,0,0,0,0,0,0,0,0,0,0,0,0,0,0,0,0,0,0,0,0,0,0,0,0,0,0,0,0,0,0,0,0,0,0,0,0,0,0,0,0,0,0,0,0,0,0,0,0,0,0,0,0,0,0,0,0,-6.435,-6.4351,0,-6.4433,-6.4434,-6.4435,-6.4329,-6.4325,-6.4322,-6.4318,-6.4397,-6.4402,-6.4408,0,0,0,0,0,0,0,0,0,0,0,0,0,-6.4096,-6.4101,-6.435,-6.4351,-6.4352,-6.4433,-6.4434,-6.4435,-6.433,-6.4325,-6.4321,-6.4316,-6.4395,-6.4402,-6.4409,0,0,0,0,0,0,0,0,0,0,0,0,0,-6.4195,-6.4103,-6.435,-6.431,-6.4307,-6.4432,-6.4434,-6.4435,-6.4331,-6.4325,-6.4319,-6.4314,-6.4393,-6.4401,-6.441,-6.4577,0,0,-6.4436,-6.4439,0,0,0,0,0,0,0,0,-6.419,-6.4204,-6.4315,-6.4313,-6.431,-6.4365,-6.4373,-6.4482,-6.4332,-6.4322,-6.4318,-6.4311,-6.4391,-6.4399,-6.4427,-6.4581,-6.4584,-6.4436,-6.4441,-6.4445,-6.4447,0,0,0,0,0,0,0,-6.4183,-6.42,-6.4382,-6.4316,-6.4313,-6.4286,-6.4293,-6.4393,-6.4387,-6.4322,-6.4315,-6.4326,-6.4388,-6.4419,-6.4428,-6.4585,-6.4436,-6.4444,-6.4449,-6.4452,-6.488,-6.4886,0,0,0,0,0,0,-6.4181,-6.4195,-6.438,-6.4385,-6.4235,-6.4295,-6.4303,-6.4353,-6.4386,-6.4385,-6.4331,-6.4321,-6.4407,-6.4418,-6.443,-6.4628,-6.4445,-6.4453,-6.4458,-6.4873,-6.4881,-6.4888,0,0,0,0,0,0,-6.4176,-6.4199,-6.4377,-6.4288,-6.4309,-6.4305,-6.4362,-6.4358,-6.4388,-6.4393,-6.439,-6.4364,-6.4403,-6.4418,-6.4541,-6.463,-6.4457,-6.4465,-6.4866,-6.4876,-6.4884,-6.5026,0,0,0,0,0,0,-6.417,-6.4198,-6.4263,-6.4291,-6.4314,-6.4489,-6.4367,-6.4363,-6.4404,-6.4392,-6.4423,-6.4422,-6.44,-6.4529,-6.455,-6.4638,-6.4471,-6.4858,-6.487,-6.4881,-6.5014,-6.5039,-6.5061,0,0,0,0,0,-6.4161,-6.4298,-6.4267,-6.4289,-6.4395,-6.4494,-6.4507,-6.448,-6.4411,-6.4476,-6.4478,-6.4421,-6.4617,-6.4543,-6.4565,-6.4657,-6.4852,-6.4867,-6.4881,-6.5003,-6.5034,-6.5061,0,0,0,0,0,0,-6.4278,-6.4301,-6.4266,-6.4417,-6.4455,-6.4476,-6.4556,-6.4514,-6.457,-6.4556,-6.4518,-6.4526,-6.4657,-6.4669,-6.4587,-6.4821,-6.4723,-6.4742,-6.4808,-6.4838,-6.4861,-6.4856,-6.4478,0,0,0,0,0,-6.4322,-6.4403,-6.4417,-6.4548,-6.4569,-6.456,-6.4602,-6.4578,-6.4614,-6.4629,-6.4641,-6.4677,-6.4746,-6.4793,-6.4856,-6.5015,-6.5019,-6.5089,-6.5113,-6.5132,-6.5149,-6.5233,-6.5264,-6.4934,-6.4934,-6.4934,0,0,-6.4413,-6.4435,-6.4488,-6.4573,-6.4599,-6.4681,-6.4574,-6.4665,-6.4725,-6.4642,-6.476,-6.477,-6.4807,-6.4949,-6.5012,-6.4963,-6.5241,-6.515,-6.5166,-6.5172,-6.5251,-6.5282,-6.531,-6.4944,-6.4942,-6.494,0,0,-6.462,-6.4646,-6.4758,-6.4787,-6.4829,-6.4822,-6.4849,-6.4878,-6.4882,-6.5,-6.4939,-6.5009,-6.5129,-6.5159,-6.5189,-6.5409,-6.5358,-6.543,-6.5555,-6.5637,-6.5663,-6.5686,-6.5764,-6.5793,-6.5447,-6.5448,-6.5448,0,-6.4727,-6.4851,-6.4821,-6.4918,-6.4956,-6.4887,-6.4999,-6.5028,-6.5088,-6.5116,-6.5061,-6.5211,-6.5231,-6.5378,-6.5432,-6.5459,-6.5488,-6.5427,-6.5662,-6.5685,-6.5706,-6.578,-6.581,-6.5456,-6.5455,-6.5454,-6.5454,0,-6.498,-6.5067,-6.5152,-6.5215,-6.5263,-6.5367,-6.5351,-6.5403,-6.5375,-6.5373,-6.5493,-6.5516,-6.5583,-6.5616,-6.5588,-6.576,-6.5728,-6.5669,-6.557,-6.5746,-6.5815,-6.5844,-6.5468,-6.5465,-6.5463,-6.5461,0,0,-6.5264,-6.5309,-6.5341,-6.5369,-6.541,-6.5475,-6.5575,-6.5643,-6.5689,-6.5732,-6.5815,-6.5919,-6.5864,-6.5899,-6.5874,-6.5946,-6.6119,-6.5877,-6.5877,-6.5921,-6.6309,-6.6354,-6.6387,-6.6085,-6.6091,-6.6095,-6.6306,0,-6.5472,-6.5648,-6.5624,-6.5793,-6.5872,-6.5807,-6.5894,-6.5928,-6.5929,-6.5995,-6.5994,-6.6069,-6.5991,-6.6012,-6.6081,-6.6083,-6.6196,-6.6067,-6.6161,-6.6164,-6.6154,-6.6423,-6.6471,-6.6669,-6.6332,-6.6337,-6.634,0,-6.5738,-6.5794,-6.5972,-6.6001,-6.6033,-6.6112,-6.6173,-6.6237,-6.6273,-6.6269,-6.6309,-6.6271,-6.6369,-6.6269,-6.6404,-6.6317,-6.6353,-6.636,-6.6367,-6.6375,-6.6263,-6.6439,-6.6732,-6.6762,-6.6382,-6.6379,-6.6376,0,-6.5928,-6.6047,-6.6169,-6.6194,-6.6231,-6.6289,-6.6306,-6.6337,-6.638,-6.6432,-6.6459,-6.6521,-6.6555,-6.6603,-6.6582,-6.6511,-6.6721,-6.6619,-6.6719,-6.672,-6.6767,-6.6764,-6.707,-6.679,-6.679,-6.6789,-6.6789,0,-6.6163,-6.6274,-6.6255,-6.633,-6.6451,-6.6422,-6.6543,-6.6552,-6.6581,-6.6655,-6.6601,-6.6671,-6.664,-6.6707,-6.6691,-6.6805,-6.6821,-6.6819,-6.6813,-6.6824,-6.6825,-6.6848,-6.6834,-6.6797,-6.6795,-6.6794,-6.6792,0,-6.6396,-6.6387,-6.6516,-6.6541,-6.655,-6.6639,-6.666,-6.6729,-6.6726,-6.6821,-6.6841,-6.6836,-6.6913,-6.6897,-6.6981,-6.697,-6.7113,-6.709,-6.7102,-6.7097,-6.7198,-6.7189,-6.753,-6.7573,-6.7265,-6.7268,-6.727,0,-6.6547,-6.6631,-6.6666,-6.6713,-6.6736,-6.6812,-6.6856,-6.6829,-6.6876,-6.6925,-6.6988,-6.7061,-6.7118,-6.7243,-6.7246,-6.731,-6.7288,-6.7403,-6.7297,-6.7305,-6.729,-6.7286,-6.7294,-6.7424,-6.7428,-6.7431,-6.7433,0,-6.6815,-6.6807,-6.6873,-6.6939,-6.6993,-6.7042,-6.7086,-6.7127,-6.7104,-6.716,-6.7239,-6.7283,-6.737,-6.7443,-6.7502,-6.7517,-6.7472,-6.7466,-6.7493,-6.7505,-6.7509,-6.7508,-6.716,-6.7459,-6.7456,-6.7454,-6.7453,-6.7452,-6.7012,-6.7084,-6.712,-6.7196,-6.7227,-6.7269,-6.7336,-6.7342,-6.7408,-6.7479,-6.7458,-6.7548,-6.7581,-6.7657,-6.768,-6.7749,-6.7705,-6.7744,-6.7754,-6.7764,-6.7777,-6.7498,-6.7759,-6.7758,-6.7758,-6.7757,-6.7757,0,-6.7278,-6.7299,-6.7368,-6.7433,-6.7492,-6.7445,-6.7492,-6.7544,-6.7625,-6.7661,-6.7718,-6.7809,-6.7879,-6.7888,-6.7954,-6.8007,-6.7988,-6.8025,-6.8021,-6.8026,-6.7812,-6.7782,-6.804,-6.804,-6.804,-6.804,-6.804,-6.804,-6.7424,-6.7543,-6.754,-6.7673,-6.7692,-6.7782,-6.7813,-6.7851,-6.788,-6.7985,-6.8044,-6.8049,-6.8074,-6.8141,-6.8203,-6.8204,-6.8231,-6.8277,-6.8269,-6.8069,-6.8041,-6.8014,-6.7986,-6.8283,-6.8283,-6.8478,-6.8479,-6.8481]}]]